TimeCST,TemperatureF,Dew PointF,Humidity,Sea Level PressureIn,VisibilityMPH,Wind Direction,Wind SpeedMPH,Gust SpeedMPH,PrecipitationIn,Events,Conditions,WindDirDegrees,DateUTC
12:15 AM,26.6,19.4,74,29.97,10.0,West,10.4,17.3,N/A,,Overcast,260,2013-02-12 06:15:00
12:35 AM,26.6,19.4,74,29.97,10.0,West,9.2,16.1,N/A,,Overcast,260,2013-02-12 06:35:00
12:55 AM,26.6,17.6,69,29.97,10.0,WSW,11.5,19.6,N/A,,Overcast,250,2013-02-12 06:55:00
1:15 AM,26.6,17.6,69,29.98,10.0,West,9.2,-,N/A,,Overcast,260,2013-02-12 07:15:00
1:35 AM,26.6,17.6,69,29.99,10.0,West,11.5,17.3,N/A,,Overcast,260,2013-02-12 07:35:00
1:55 AM,26.6,17.6,69,30.00,10.0,West,11.5,19.6,N/A,,Overcast,260,2013-02-12 07:55:00
2:15 AM,24.8,17.6,74,30.00,10.0,West,9.2,17.3,N/A,,Overcast,280,2013-02-12 08:15:00
2:35 AM,24.8,17.6,74,30.01,10.0,West,9.2,-,N/A,,Overcast,270,2013-02-12 08:35:00
2:55 AM,24.8,17.6,74,30.01,10.0,West,8.1,-,N/A,,Overcast,260,2013-02-12 08:55:00
3:15 AM,24.8,17.6,74,30.01,10.0,West,8.1,-,N/A,,Overcast,260,2013-02-12 09:15:00
3:35 AM,24.8,17.6,74,30.01,10.0,WSW,15.0,-,N/A,,Overcast,250,2013-02-12 09:35:00
3:55 AM,23.0,17.6,80,30.02,10.0,WSW,11.5,18.4,N/A,,Overcast,250,2013-02-12 09:55:00
4:15 AM,23.0,17.6,80,30.02,10.0,WSW,15.0,-,N/A,,Overcast,240,2013-02-12 10:15:00
4:35 AM,23.0,17.6,80,30.02,10.0,WSW,11.5,-,N/A,,Overcast,240,2013-02-12 10:35:00
4:55 AM,23.0,15.8,74,30.03,10.0,WSW,17.3,-,N/A,,Overcast,240,2013-02-12 10:55:00
5:15 AM,21.2,15.8,80,30.03,10.0,WSW,12.7,-,N/A,,Overcast,250,2013-02-12 11:15:00
5:35 AM,21.2,15.8,80,30.03,10.0,WSW,11.5,-,N/A,,Overcast,250,2013-02-12 11:35:00
5:55 AM,21.2,14.0,74,30.02,10.0,WSW,12.7,-,N/A,,Overcast,240,2013-02-12 11:55:00
6:15 AM,21.2,14.0,74,30.03,10.0,West,10.4,-,N/A,,Overcast,260,2013-02-12 12:15:00
6:35 AM,21.2,14.0,74,30.03,10.0,West,8.1,-,N/A,,Overcast,280,2013-02-12 12:35:00
6:55 AM,21.2,14.0,74,30.03,10.0,West,9.2,-,N/A,,Overcast,270,2013-02-12 12:55:00
7:15 AM,21.2,14.0,74,30.03,10.0,West,8.1,-,N/A,,Overcast,270,2013-02-12 13:15:00
7:35 AM,21.2,14.0,74,30.03,10.0,West,10.4,-,N/A,,Overcast,260,2013-02-12 13:35:00
7:55 AM,21.2,14.0,74,30.04,10.0,WSW,11.5,-,N/A,Snow,Light Snow,250,2013-02-12 13:55:00
8:15 AM,21.2,14.0,74,30.06,10.0,West,10.4,-,N/A,Snow,Light Snow,260,2013-02-12 14:15:00
8:35 AM,21.2,14.0,74,30.06,10.0,WSW,11.5,-,N/A,Snow,Light Snow,250,2013-02-12 14:35:00
8:55 AM,21.2,14.0,74,30.06,3.0,WSW,9.2,-,N/A,Snow,Light Snow,250,2013-02-12 14:55:00
9:15 AM,21.2,14.0,74,30.05,7.0,WSW,11.5,-,N/A,Snow,Light Snow,250,2013-02-12 15:15:00
9:35 AM,21.2,14.0,74,30.05,10.0,West,10.4,18.4,N/A,,Overcast,260,2013-02-12 15:35:00
9:55 AM,23.0,14.0,68,30.04,10.0,WSW,11.5,-,N/A,Snow,Light Snow,250,2013-02-12 15:55:00
10:15 AM,23.0,14.0,68,30.03,10.0,WSW,9.2,-,N/A,,Overcast,250,2013-02-12 16:15:00
10:35 AM,23.0,14.0,68,30.03,10.0,WSW,10.4,-,N/A,Snow,Light Snow,250,2013-02-12 16:35:00
10:55 AM,23.0,14.0,68,30.03,10.0,WSW,9.2,-,N/A,,Overcast,250,2013-02-12 16:55:00
11:15 AM,23.0,14.0,68,30.03,10.0,West,8.1,-,N/A,,Overcast,260,2013-02-12 17:15:00
11:35 AM,23.0,14.0,68,30.03,10.0,SW,12.7,-,N/A,,Overcast,230,2013-02-12 17:35:00
11:55 AM,24.8,14.0,64,30.02,10.0,WSW,11.5,-,N/A,,Overcast,240,2013-02-12 17:55:00
12:15 PM,24.8,14.0,64,30.00,10.0,WSW,12.7,-,N/A,,Overcast,240,2013-02-12 18:15:00
12:35 PM,24.8,15.8,69,30.00,10.0,SW,12.7,-,N/A,,Overcast,220,2013-02-12 18:35:00
12:55 PM,24.8,14.0,64,29.99,10.0,SW,12.7,-,N/A,,Overcast,230,2013-02-12 18:55:00
1:15 PM,24.8,14.0,64,29.97,10.0,SW,12.7,18.4,N/A,,Overcast,220,2013-02-12 19:15:00
1:35 PM,26.6,14.0,59,29.97,10.0,SW,16.1,-,N/A,,Overcast,230,2013-02-12 19:35:00
1:55 PM,26.6,15.8,64,29.97,10.0,SW,11.5,-,N/A,,Scattered Clouds,230,2013-02-12 19:55:00
2:15 PM,26.6,15.8,64,29.96,10.0,WSW,13.8,19.6,N/A,,Mostly Cloudy,240,2013-02-12 20:15:00
2:35 PM,26.6,15.8,64,29.96,10.0,WSW,12.7,-,N/A,,Overcast,250,2013-02-12 20:35:00
2:55 PM,26.6,17.6,69,29.95,10.0,WSW,12.7,-,N/A,,Mostly Cloudy,250,2013-02-12 20:55:00
3:15 PM,26.6,17.6,69,29.96,10.0,WSW,11.5,-,N/A,,Scattered Clouds,240,2013-02-12 21:15:00
3:35 PM,26.6,17.6,69,29.95,10.0,WSW,10.4,-,N/A,,Clear,240,2013-02-12 21:35:00
3:55 PM,26.6,17.6,69,29.94,10.0,SW,9.2,-,N/A,,Clear,230,2013-02-12 21:55:00
4:15 PM,26.6,17.6,69,29.94,10.0,SW,10.4,-,N/A,,Clear,220,2013-02-12 22:15:00
4:35 PM,26.6,17.6,69,29.94,10.0,SW,8.1,-,N/A,,Clear,220,2013-02-12 22:35:00
4:55 PM,26.6,17.6,69,29.93,10.0,SSW,8.1,-,N/A,,Clear,210,2013-02-12 22:55:00
5:15 PM,26.6,17.6,69,29.93,10.0,SSW,8.1,-,N/A,,Clear,200,2013-02-12 23:15:00
5:35 PM,24.8,17.6,74,29.92,10.0,South,5.8,-,N/A,,Clear,190,2013-02-12 23:35:00
5:55 PM,24.8,17.6,74,29.92,10.0,South,6.9,-,N/A,,Clear,170,2013-02-12 23:55:00
6:15 PM,24.8,17.6,74,29.92,10.0,South,6.9,-,N/A,,Clear,170,2013-02-13 00:15:00
6:35 PM,23.0,17.6,80,29.92,10.0,South,8.1,-,N/A,,Clear,180,2013-02-13 00:35:00
6:55 PM,23.0,17.6,80,29.92,10.0,South,6.9,-,N/A,,Clear,170,2013-02-13 00:55:00
7:15 PM,23.0,17.6,80,29.92,10.0,South,6.9,-,N/A,,Clear,190,2013-02-13 01:15:00
7:35 PM,23.0,17.6,80,29.91,10.0,SSW,6.9,-,N/A,,Clear,200,2013-02-13 01:35:00
8:15 PM,23.0,17.6,80,29.90,10.0,South,8.1,-,N/A,,Clear,190,2013-02-13 02:15:00
8:35 PM,23.0,17.6,80,29.90,10.0,South,8.1,-,N/A,,Clear,190,2013-02-13 02:35:00
8:55 PM,23.0,17.6,80,29.90,10.0,South,6.9,-,N/A,,Clear,190,2013-02-13 02:55:00
9:15 PM,23.0,17.6,80,29.89,10.0,South,6.9,-,N/A,,Clear,190,2013-02-13 03:15:00
9:35 PM,23.0,17.6,80,29.88,10.0,South,8.1,-,N/A,,Clear,190,2013-02-13 03:35:00
9:55 PM,23.0,17.6,80,29.87,10.0,South,8.1,-,N/A,,Clear,190,2013-02-13 03:55:00
10:15 PM,23.0,19.4,86,29.87,10.0,South,8.1,-,N/A,,Clear,190,2013-02-13 04:15:00
10:35 PM,23.0,19.4,86,29.86,10.0,South,6.9,-,N/A,,Clear,190,2013-02-13 04:35:00
10:55 PM,23.0,19.4,86,29.85,10.0,South,5.8,-,N/A,,Clear,190,2013-02-13 04:55:00
11:15 PM,23.0,19.4,86,29.85,10.0,South,6.9,-,N/A,,Clear,190,2013-02-13 05:15:00
11:35 PM,21.2,19.4,93,29.85,10.0,South,8.1,-,N/A,,Clear,190,2013-02-13 05:35:00
11:55 PM,21.2,19.4,93,29.85,10.0,SSW,8.1,-,N/A,,Clear,200,2013-02-13 05:55:00